{"data":{"norad_id":56744,"intl_designator":"2023-072B","name":"SNIPE 4","alt_names":[],"object_type":"PAYLOAD","status":"ACTIVE","operator":null,"country":"SKOR","launch_date":"2023-05-25","launch_site_code":"NSC","launch_vehicle":null,"mission":null,"orbit_class":"UNKNOWN","rcs_meters":null,"size_class":null,"mass_kg":null,"dimensions":null,"purposes":[],"wikipedia_slug":null,"has_3d_model":false,"image_url":null,"decayed_at":null,"tle_current":{"epoch":"2026-09-21T21:36:57.055104Z","epoch_age_seconds":75738,"freshness":"FRESH","line1":"1 56744U 23072B   26264.90066036  .00014975  00000+0  30982-3 0  9990","line2":"2 56744  97.5153 114.1885 0004414 353.1968   6.9220 15.45886826185033","mean_motion":15.45886826,"eccentricity":0.0004414,"inclination_deg":97.5153,"raan_deg":114.1885,"arg_perigee_deg":353.1968,"mean_anomaly_deg":6.922,"bstar":0.00030982,"rev_number":18503,"period_min":93.150415397873,"perigee_km":425.76898492441,"apogee_km":431.77812556258,"semimajor_km":6806.9105552435,"source":"CELESTRAK","updated_at":"2026-09-22T09:00:25.904916Z"}}}